Quillayute, WA

9:27 AM PST on February 23, 2018 (GMT -0800)
Quillayute

Weather History for KUIL - March, 2012

Change the Weather History Date:

Sunday, March 4, 2012

  Actual Average Record
Temperature  
Mean Temperature 45 °F 43 °F  
Max Temperature 46 °F 50 °F 61 °F (2007)
Min Temperature 44 °F 36 °F 25 °F (1976)
Degree Days  
Heating Degree Days 20 22  
Month to date heating degree days 88  
Since 1 July heating degree days 3933  
Cooling Degree Days 0 0  
Month to date cooling degree days 0  
Year to date cooling degree days 0  
Moisture  
Dew Point 45 °F    
Average Humidity 100    
Maximum Humidity 100    
Minimum Humidity 100    
Precipitation  
Precipitation 0.91 in 0.36 in 2.94 in (1979)
Month to date precipitation 1.47  
Year to date precipitation 26.43  
Sea Level Pressure  
Sea Level Pressure 30.16 in    
Wind  
Wind Speed 8 mph (South)    
Max Wind Speed 17 mph    
Max Gust Speed 26 mph    
Visibility 3 miles    
Events Rain    
T = Trace of Precipitation, MM = Missing Value Source: NWS Daily Summary

Daily Weather History Graph

Daily Weather History Graph

Search for Another Location

Airport or City:

Trip Planner

Search our weather history database for the weather conditions in past years. The results will help you decide how hot, cold, wet, or windy it might be!

Date:

Astronomy

Mar. 04, 2012 Rise Set
Actual Time 6:52 AM PST 6:08 PM PST
Civil Twilight 6:21 AM PST 6:39 PM PST
Nautical Twilight 5:45 AM PST 7:15 PM PST
Astronomical Twilight 5:09 AM PST 7:51 PM PST
Moon 2:12 PM PST (3/4) 4:31 AM PST (3/4)
Length of Visible Light 12h 18m
Length of Day
11h 16m
Waxing Gibbous, 84% of the Moon is Illuminated
Mar 4
Waxing Gibbous
Mar 8
Full
Mar 14
Last Quarter
Mar 22
New
Mar 30
First Quarter

Hourly Weather History & Observations

Time (PST) Temp. Windchill Dew Point Humidity Pressure Visibility Wind Dir Wind Speed Gust Speed Precip Events Conditions
12:01 AM 44.6 °F 42.2 °F 44.6 °F 100% 30.35 in 4.0 mi SSW 4.6 mph - 0.01 in Rain Light Rain
12:35 AM 44.6 °F - 44.6 °F 100% 30.34 in 4.0 mi Calm Calm - 0.04 in Rain Light Rain
12:41 AM 44.6 °F - 44.6 °F 100% 30.34 in 4.0 mi Calm Calm - 0.04 in Rain Light Rain
12:53 AM 45.0 °F - 45.0 °F 100% 30.35 in 3.0 mi Calm Calm - 0.05 in Rain Light Rain
12:58 AM 44.6 °F - 44.6 °F 100% 30.34 in 2.5 mi Calm Calm - 0.00 in Rain Light Rain
1:19 AM 44.6 °F - 44.6 °F 100% 30.33 in 5.0 mi Calm Calm - 0.02 in Rain Light Rain
1:53 AM 45.0 °F 42.6 °F 45.0 °F 100% 30.33 in 3.0 mi South 4.6 mph - 0.03 in   Overcast
2:10 AM 44.6 °F 41.4 °F 44.6 °F 100% 30.32 in 2.0 mi South 5.8 mph - N/A   Overcast
2:26 AM 44.6 °F 40.7 °F 44.6 °F 100% 30.31 in 4.0 mi South 6.9 mph - N/A   Overcast
2:45 AM 44.6 °F 41.4 °F 44.6 °F 100% 30.32 in 2.5 mi SW 5.8 mph - 0.00 in Rain Light Rain
2:53 AM 45.0 °F 42.6 °F 45.0 °F 100% 30.32 in 2.5 mi South 4.6 mph - 0.00 in Rain Light Rain
3:08 AM 44.6 °F 41.4 °F 44.6 °F 100% 30.30 in 6.0 mi South 5.8 mph - 0.00 in   Overcast
3:26 AM 44.6 °F 41.4 °F 44.6 °F 100% 30.30 in 9.0 mi South 5.8 mph - 0.00 in   Overcast
3:53 AM 45.0 °F 40.6 °F 45.0 °F 100% 30.30 in 6.0 mi SSW 8.1 mph - 0.00 in   Overcast
4:44 AM 44.6 °F 41.4 °F 44.6 °F 100% 30.28 in 10.0 mi South 5.8 mph - N/A   Overcast
4:53 AM 45.0 °F 42.6 °F 45.0 °F 100% 30.29 in 10.0 mi SSW 4.6 mph - N/A   Overcast
5:13 AM 44.6 °F 42.2 °F 44.6 °F 100% 30.27 in 10.0 mi South 4.6 mph - N/A   Overcast
5:50 AM 44.6 °F 41.4 °F 44.6 °F 100% 30.26 in 10.0 mi South 5.8 mph - N/A   Overcast
5:53 AM 44.1 °F 41.5 °F 44.1 °F 100% 30.26 in 10.0 mi South 4.6 mph - N/A   Overcast
5:58 AM 44.6 °F 40.7 °F 44.6 °F 100% 30.26 in 10.0 mi South 6.9 mph - N/A   Overcast
6:25 AM 44.6 °F 41.4 °F 44.6 °F 100% 30.27 in 10.0 mi South 5.8 mph - N/A   Overcast
6:53 AM 44.1 °F 40.1 °F 44.1 °F 100% 30.27 in 2.5 mi South 6.9 mph - 0.01 in Rain Light Rain
7:05 AM 44.6 °F 40.7 °F 44.6 °F 100% 30.26 in 2.0 mi South 6.9 mph - 0.00 in Rain Light Rain
7:21 AM 44.6 °F 40.7 °F 44.6 °F 100% 30.25 in 1.2 mi South 6.9 mph - 0.00 in Rain Light Rain
7:53 AM 44.1 °F 41.5 °F 44.1 °F 100% 30.26 in 1.0 mi South 4.6 mph - 0.02 in Rain Light Rain
8:01 AM 44.6 °F 40.7 °F 44.6 °F 100% 30.25 in 2.0 mi South 6.9 mph - 0.01 in Rain Light Rain
8:09 AM 44.6 °F 41.4 °F 44.6 °F 100% 30.25 in 4.0 mi South 5.8 mph - 0.01 in   Overcast
8:18 AM 44.6 °F 42.2 °F 44.6 °F 100% 30.24 in 2.5 mi South 4.6 mph - 0.01 in   Overcast
8:26 AM 44.6 °F 42.2 °F 44.6 °F 100% 30.24 in 6.0 mi Variable 4.6 mph - 0.01 in   Overcast
8:40 AM 44.6 °F 41.4 °F 44.6 °F 100% 30.25 in 2.0 mi South 5.8 mph - 0.01 in   Overcast
8:51 AM 44.6 °F 41.4 °F 44.6 °F 100% 30.24 in 1.8 mi South 5.8 mph - 0.01 in   Overcast
8:53 AM 44.1 °F 40.8 °F 44.1 °F 100% 30.25 in 1.5 mi South 5.8 mph - 0.01 in   Overcast
9:12 AM 44.6 °F 40.2 °F 44.6 °F 100% 30.24 in 1.0 mi South 8.1 mph - 0.01 in Rain Light Rain
9:25 AM 44.6 °F 42.2 °F 44.6 °F 100% 30.24 in 0.8 mi Variable 4.6 mph - 0.02 in Rain Light Rain
9:35 AM 44.6 °F 40.2 °F 44.6 °F 100% 30.23 in 1.0 mi South 8.1 mph - 0.03 in Rain Light Rain
9:53 AM 45.0 °F 41.2 °F 45.0 °F 100% 30.25 in 1.0 mi SSW 6.9 mph - 0.04 in Rain Light Rain
10:14 AM 44.6 °F 40.7 °F 44.6 °F 100% 30.23 in 2.5 mi Variable 6.9 mph - 0.02 in Rain Light Rain
10:21 AM 44.6 °F 40.7 °F 44.6 °F 100% 30.23 in 5.0 mi South 6.9 mph - 0.02 in   Overcast
10:29 AM 44.6 °F 40.2 °F 44.6 °F 100% 30.23 in 1.8 mi South 8.1 mph - 0.02 in Rain Light Rain
10:40 AM 44.6 °F 39.7 °F 44.6 °F 100% 30.22 in 3.0 mi South 9.2 mph - 0.03 in Rain Light Rain
10:53 AM 45.0 °F 40.6 °F 45.0 °F 100% 30.23 in 9.0 mi South 8.1 mph - 0.03 in   Overcast
11:14 AM 44.6 °F 40.7 °F 44.6 °F 100% 30.22 in 1.8 mi South 6.9 mph - 0.00 in Rain Light Rain
11:20 AM 44.6 °F 39.7 °F 44.6 °F 100% 30.22 in 0.8 mi South 9.2 mph - 0.00 in Rain Light Rain
11:28 AM 44.6 °F 40.2 °F 44.6 °F 100% 30.22 in 1.0 mi South 8.1 mph 16.1 mph 0.00 in   Overcast
11:40 AM 44.6 °F 40.2 °F 44.6 °F 100% 30.21 in 2.5 mi South 8.1 mph 16.1 mph 0.00 in   Overcast
11:53 AM 45.0 °F 39.7 °F 45.0 °F 100% 30.22 in 6.0 mi South 10.4 mph - 0.00 in   Overcast
12:05 PM 44.6 °F 39.7 °F 44.6 °F 100% 30.22 in 2.0 mi South 9.2 mph 17.3 mph 0.00 in   Overcast
12:07 PM 44.6 °F 39.7 °F 44.6 °F 100% 30.21 in 1.2 mi SSW 9.2 mph 17.3 mph 0.00 in   Overcast
12:22 PM 46.4 °F 42.9 °F 46.4 °F 100% 30.21 in 2.0 mi Variable 6.9 mph - 0.01 in Rain Light Rain
12:30 PM 44.6 °F 40.7 °F 44.6 °F 100% 30.21 in 10.0 mi SSW 6.9 mph - 0.01 in   Overcast
12:53 PM 45.0 °F 39.7 °F 45.0 °F 100% 30.20 in 9.0 mi SSW 10.4 mph 16.1 mph 0.02 in Rain Light Rain
1:22 PM 44.6 °F 40.7 °F 44.6 °F 100% 30.19 in 9.0 mi SSW 6.9 mph 18.4 mph 0.00 in   Overcast
1:29 PM 44.6 °F 40.7 °F 44.6 °F 100% 30.19 in 2.5 mi Variable 6.9 mph - 0.00 in   Overcast
1:32 PM 44.6 °F 38.8 °F 44.6 °F 100% 30.19 in 1.5 mi SSW 11.5 mph - 0.00 in Rain Light Rain
1:34 PM 44.6 °F 40.2 °F 44.6 °F 100% 30.19 in 1.2 mi South 8.1 mph - 0.00 in Rain Light Rain
1:44 PM 44.6 °F 42.2 °F 44.6 °F 100% 30.18 in 0.8 mi South 4.6 mph - 0.00 in Rain Light Rain
1:53 PM 45.0 °F 40.6 °F 45.0 °F 100% 30.18 in 1.0 mi South 8.1 mph - 0.01 in Rain Light Rain
2:14 PM 44.6 °F 39.7 °F 44.6 °F 100% 30.16 in 0.8 mi South 9.2 mph - 0.02 in Rain Light Rain
2:26 PM 44.6 °F 38.4 °F 44.6 °F 100% 30.16 in 1.0 mi South 12.7 mph 19.6 mph 0.02 in Rain Light Rain
2:48 PM 44.6 °F 39.7 °F 44.6 °F 100% 30.15 in 2.0 mi South 9.2 mph - 0.03 in Rain Light Rain
2:53 PM 45.0 °F 39.3 °F 45.0 °F 100% 30.15 in 3.0 mi South 11.5 mph 20.7 mph 0.03 in Rain Light Rain
3:00 PM 44.6 °F 40.2 °F 44.6 °F 100% 30.14 in 1.8 mi South 8.1 mph 20.7 mph 0.00 in Rain Light Rain
3:09 PM 44.6 °F 40.2 °F 44.6 °F 100% 30.14 in 1.0 mi South 8.1 mph - 0.01 in Rain Light Rain
3:53 PM 44.1 °F 40.1 °F 44.1 °F 100% 30.12 in 0.8 mi SSW 6.9 mph 16.1 mph 0.03 in Rain Light Rain
4:07 PM 44.6 °F 39.2 °F 44.6 °F 100% 30.11 in 1.0 mi South 10.4 mph 18.4 mph 0.01 in Rain Light Rain
4:23 PM 44.6 °F 39.7 °F 44.6 °F 100% 30.10 in 0.8 mi South 9.2 mph 20.7 mph 0.02 in Rain Light Rain
4:53 PM 44.1 °F 38.6 °F 44.1 °F 100% 30.09 in 0.8 mi South 10.4 mph 17.3 mph 0.05 in Rain Light Rain
5:29 PM 44.6 °F 39.7 °F 44.6 °F 100% 30.07 in 1.0 mi South 9.2 mph 17.3 mph 0.02 in Rain Light Rain
5:37 PM 44.6 °F 40.2 °F 44.6 °F 100% 30.06 in 0.8 mi South 8.1 mph - N/A Rain Light Rain
5:50 PM 44.6 °F 40.2 °F 44.6 °F 100% 30.06 in 1.5 mi SSW 8.1 mph - 0.04 in Rain Light Rain
5:53 PM 44.1 °F 39.0 °F 44.1 °F 100% 30.06 in 2.0 mi South 9.2 mph 16.1 mph 0.04 in Rain Light Rain
6:07 PM 44.6 °F 39.7 °F 44.6 °F 100% 30.05 in 3.0 mi South 9.2 mph 20.7 mph 0.00 in   Overcast
6:25 PM 44.6 °F 40.2 °F 44.6 °F 100% 30.04 in 2.5 mi South 8.1 mph 17.3 mph 0.00 in Rain Light Rain
6:37 PM 44.6 °F 39.7 °F 44.6 °F 100% 30.04 in 1.8 mi South 9.2 mph - 0.01 in Rain Light Rain
6:53 PM 44.1 °F 39.5 °F 44.1 °F 100% 30.04 in 1.8 mi South 8.1 mph 21.9 mph 0.01 in Rain Light Rain
7:02 PM 44.6 °F 38.4 °F 44.6 °F 100% 30.03 in 2.0 mi South 12.7 mph 19.6 mph 0.01 in Rain Light Rain
7:35 PM 44.6 °F 38.4 °F 44.6 °F 100% 30.02 in 1.8 mi South 12.7 mph 19.6 mph 0.02 in Rain Light Rain
7:53 PM 45.0 °F 38.5 °F 45.0 °F 100% 30.02 in 1.5 mi South 13.8 mph 26.5 mph 0.06 in Rain Light Rain
8:27 PM 44.6 °F 39.2 °F 44.6 °F 100% 30.01 in 2.0 mi South 10.4 mph 23.0 mph 0.04 in Rain Light Rain
8:44 PM 44.6 °F 38.8 °F 44.6 °F 100% 30.00 in 1.8 mi South 11.5 mph 17.3 mph 0.06 in Rain Light Rain
8:53 PM 45.0 °F 39.7 °F 45.0 °F 100% 30.00 in 1.5 mi South 10.4 mph 18.4 mph 0.06 in Rain Light Rain
9:14 PM 44.6 °F 38.8 °F 44.6 °F 100% 29.99 in 1.2 mi South 11.5 mph 23.0 mph 0.03 in Rain Light Rain
9:34 PM 44.6 °F 39.7 °F 44.6 °F 100% 29.99 in 1.5 mi South 9.2 mph 17.3 mph 0.06 in Rain Light Rain
9:41 PM 44.6 °F 38.1 °F 44.6 °F 100% 29.98 in 1.2 mi South 13.8 mph 23.0 mph 0.07 in Rain Light Rain
9:53 PM 44.1 °F 37.7 °F 44.1 °F 100% 29.98 in 1.8 mi South 12.7 mph 26.5 mph 0.09 in Rain Light Rain
10:00 PM 44.6 °F 38.1 °F 44.6 °F 100% 29.97 in 2.0 mi South 13.8 mph 24.2 mph 0.00 in Rain Light Rain
10:06 PM 44.6 °F 38.1 °F 44.6 °F 100% 29.97 in 1.8 mi South 13.8 mph 24.2 mph 0.01 in Rain Light Rain
10:24 PM 44.6 °F 38.8 °F 44.6 °F 100% 29.97 in 1.2 mi South 11.5 mph 26.5 mph 0.03 in Rain Light Rain
10:35 PM 44.6 °F 38.1 °F 44.6 °F 100% 29.96 in 1.5 mi South 13.8 mph 25.3 mph 0.04 in Rain Light Rain
10:44 PM 44.6 °F 38.4 °F 44.6 °F 100% 29.96 in 1.2 mi South 12.7 mph 25.3 mph 0.06 in Rain Rain
10:53 PM 44.1 °F 38.6 °F 44.1 °F 100% 29.96 in 1.2 mi South 10.4 mph 23.0 mph 0.10 in Rain Rain
11:05 PM 44.6 °F 40.2 °F 44.6 °F 100% 29.95 in 1.5 mi South 8.1 mph 25.3 mph 0.04 in Rain Rain
11:26 PM 44.6 °F 38.8 °F 44.6 °F 100% 29.94 in 2.0 mi South 11.5 mph 21.9 mph 0.11 in Rain Rain
11:35 PM 44.6 °F 39.2 °F 44.6 °F 100% 29.93 in 1.8 mi South 10.4 mph 20.7 mph 0.14 in Rain Rain
11:46 PM 44.6 °F 38.4 °F 44.6 °F 100% 29.92 in 2.0 mi South 12.7 mph 23.0 mph 0.18 in Rain Rain
11:53 PM 44.1 °F 38.1 °F 44.1 °F 100% 29.93 in 2.5 mi South 11.5 mph 23.0 mph 0.21 in Rain Rain